カタログに戻る

FENGYUN 1C DEB

運用中SSO
NORAD 30675·DEBRIS·🇨🇳 China

打ち上げ May 10, 1999 から Taiyuan Satellite Launch Center

Loading…

次のパス (今後24時間)

TLE

最新Source: Space-Track

元期: Sep 14, 2026, 04:31 UTC

1 30675U 99025AQH 26257.18866329  .00001979  00000-0  78548-3 0  9992
2 30675  98.7436 341.9170 0052079  85.8169 304.8442 14.29161419  8220

AllMySatでFENGYUN 1C DEBをリアルタイム追跡

Download on the App Store